COSMOS 2251 DEB, 36558

Orbit data source: Space-Track

COSMOS 2251 DEB, 36558 is space debris in LEO originally from a launch on Wed, 16 Jun 1993 UTC launched from the Plesetsk Missile And Space Complex (PKMTR). The debris from Iridium 33, an American commercial communications satellite, has been tracked extensively since its accidental collision with the defunct Russian satellite Cosmos 2251 in 2009. This event, occurring at high speed in low Earth orbit (LEO), generated thousands of pieces of space debris, significantly increasing the risk of further collisions. The Iridium 33 debris cloud has impacted space traffic management and orbital debris mitigation strategies, making it a subject of ongoing study in space situational awareness.

Loading next visibility...
Identifier
36558, 1993-036BDU
Orbit
LEO
Country
Flag of CISCIS
Related business
Manufacturer
Unknown
Mission
Spacecraft
Bus & Motor
Unknown
Mass
Unknown
Launch date (UTC)
1993-06-16 (33 years ago)
Launch vehicle
Unknown
Launch site
Plesetsk Missile And Space Complex (PKMTR)
Object type
Payload
Rocket body
Debris
Shape & HBR
Unknown shape, 0.1 m
Radar Cross Section
Small (<0.1 m²)

Expand to show TLE details & history
Last TLE update: 2 days ago

TLE from 2 days ago
0 COSMOS 2251 DEB
1 36558U 93036BDU 26120.64975813  .00002904  00000-0  65987-3 0  9995
2 36558  74.0422 251.3010 0012578 304.8439  55.1541 14.56398609872902
Epoch: 2026-04-30T15:35Z
TLE epoch observation values (Epoch: 2026-04-30T15:35:39.102Z)
Latitude
-0.00003°
Longitude
158.79474°
Altitude
702.379 km
Speed
7.508 km/s
True Right ascension
16h 45m 12s
True Declination
0° 00' 00"
Sunlit
Object was in full shadow at epoch
Visualization orbit readout
Latitude
Unknown
Longitude
Unknown
Altitude
Unknown
Speed
Unknown
Apparent Right ascension
Unknown
Apparent Declination
Unknown
Sunlit
N/A
Visualization observer readout
Local Sidereal Time
20:47:40
Azimuth
Unknown
Elevation
Unknown
Doppler factor
Unknown
Orbital elements
Apogee altitude
711.333 km
Perigee altitude
693.522 km
Semi-major axis
7,080.564 km
Eccentricity
0.00126
Inclination
74.0422°
RAAN
251.301°
Arg. of periapsis
304.8439°
True anomaly
55.2725°
Mean anomaly
55.1541°
Eccentric anomaly
55.21329°
Mean motion
3.64285 °/min
Orbital period
98.82 mins
BSTAR
0.00065987
Loading maneuver chart data...
Computing Atmospheric mass density...
Loading historical data...
Loading historical data...
Loading historical data...
Loading historical data...
Loading historical data...
Loading historical data...
Loading historical data...

Documentation

Showing up to 5 results
|